ギブス彗星

390P/Gibbs (2006)

English version
Home page
Updated on November 24, 2019

---------------------------------------------------------------------

・ プロフィール

符号 390P/2006 W1
発見日 2006年11月16日
発見光度 18.6等
発見者 A. R. Gibbs (Catalina Sky Survey)

・ 軌道要素

Epoch 2006 Apr. 15.0 TT = JDT 2453840.5                                         
T 2006 Mar. 29.65750 TT                                 Bell                    
q   1.7001589            (2000.0)            P               Q                  
n   0.07071145     Peri.  230.58096     +0.89055091     -0.43198481             
a   5.7917465      Node   154.05396     +0.44777264     +0.88767726             
e   0.7064514      Incl.   19.00870     -0.08011700     +0.15943087             
P  13.9                                                                         
From 170 observations 2006 Nov. 16-2019 Oct. 25, mean residual 0".7.            

・ 星図

・ 光度変化

        m1 = 12.0 + 5 logΔ + 10.0 log r

---------------------------------------------------------------------

軌道要素はM.P.E.C. 2019-U163に掲載されたものです。
星図は StellaNavigator Ver.2.0 for Windows (アストロアーツ 編著 / アスキー出版局刊) で作成したものです。
光度グラフはComet for Windowsで作成したものです。

---------------------------------------------------------------------

Copyright(C) Seiichi Yoshida (comet@aerith.net). All rights reserved.